SPACEBEE-89 (48933 NORAD) Tracking and Keplerian Element Data

This shows tracking and keplerian element data for the satellite.

Feedback or suggestion? Click here.




ElementValue
Catalog48933
NameSPACEBEE-89
Epoch Orbit1396
Epoch Day269.07874487
Epoch Year2021
RAAN36.7457
Inclination97.5192
Eccentricity0.0016415
Argument of Perigee298.0743
Mean Anonmoly61.8829
Mean Motion15.14714249
Decay Rate8.125E-05
L11 48933U 21059BG 21269.07874487 .00008125 00000-0 44068-3 0 9990
L22 48933 97.5192 36.7457 0016415 298.0743 61.8829 15.14714249 13965

Live tracking and technical data element details for SPACEBEE-89 (NORAD 48933). SPACEBEE-89 can be tracked NOW for your location showing map with azimuth and elevation plus other details from your city location.

Track the satellite on the map from your city or location and see movement details for azimuth, elevation, latitude, longitude, range, height, and movement on the map or in text.







IsCatalogInMostPopularTable: catalog: 48933, numindb: 15
Update: records affected: 1



GetName: 48933 SPACEBEE-89

Hit Count: updated at: Sun, 26 Sep 2021 15:50:38 GMT